Air Resources Laboratory banner image
Air Resources Laboratory web site National Oceanic and Atmospheric Administration (NOAA)

vt roundup


Office: BTV

ASUS41 KBTV 202110
RWRBTV
VERMONT REGIONAL WEATHER ROUNDUP
NATIONAL WEATHER SERVICE BURLINGTON VT
400 PM EST TUE NOV 20 2018

NOTE: "FAIR" INDICATES FEW OR NO CLOUDS BELOW 12,000 FEET WITH NO
SIGNIFICANT WEATHER AND/OR OBSTRUCTIONS TO VISIBILITY.

* THESE REPORTS ARE NOT UNDER NWS QUALITY CONTROL AND/OR DO NOT
  REPORT WEATHER SUCH AS PRECIPITATION AND FOG.

VTZ001>019-202200-
_____VERMONT_____


CITY           SKY/WX    TMP DP  RH WIND       PRES   REMARKS
BURLINGTON     LGT SNOW  25  21  85 N8        29.89R FOG     WCI  16
MONTPELIER     LGT SNOW  30  30 100 CALM      29.85S FOG
MORRISVILLE    LGT SNOW  29  28  96 N3        29.85S FOG
ST. JOHNSBURY*   N/A     31  31 100 MISG      29.82S
LYNDONVILLE*   LGT SNOW  30  29  96 CALM        N/A  VSB 1
MIDDLEBURY*    LGT SNOW  30  28  95 CALM      29.87R
RUTLAND*       LGT SNOW  32  31  96 N3        29.85S FOG
SPRINGFIELD    SNOW      32  32 100 CALM      29.85S VSB 1/2
HIGHGATE*      LGT SNOW  21  19  93 N3        29.91R
NEWPORT*       LGT SNOW  28  28 100 CALM      29.84R VSB 1
BENNINGTON     CLOUDY    34  31  88 W3        29.86R
LAKE EDEN*       N/A     28 N/A N/A S1          N/A

_____LAKE CHAMPLAIN_____


CITY           SKY/WX    TMP DP  RH WIND       PRES   REMARKS

$$

NYZ007-026>031-035-052-083-087-202200-
_____NORTHERN NEW YORK_____


CITY           SKY/WX    TMP DP  RH WIND       PRES   REMARKS
PLATTSBURGH    LGT SNOW  23  19  85 N8        29.91R FOG     WCI  14
SARANAC LAKE   FLURRIES  30  27  88 SW6       29.79S WCI  24
MASSENA        LGT SNOW  24  21  88 CALM      29.96R FOG
OGDENSBURG*    CLOUDY    26  22  85 NW7       29.95R WCI  18
POTSDAM*       LGT SNOW  25  21  86 NW5       29.93R WCI  19
WATERTOWN      CLOUDY    28  24  85 W7        29.97R WCI  21
FT DRUM        CLOUDY    25  25 100 NW8       29.93R WCI  16
ALBANY         MOCLDY    39  32  76 CALM      29.90R
GLENS FALLS    CLOUDY    33  33 100 SE5       29.88R FOG     WCI  29

$$
NHZ002-005-011-202200-
_____NEW HAMPSHIRE_____


CITY           SKY/WX    TMP DP  RH WIND       PRES   REMARKS
LEBANON        LGT SNOW  34  31  88 CALM      29.83S VSB 3/4
KEENE          LGT SNOW  33  32  96 CALM      29.85S FOG
MT WASHINGTON  SNOW      14  14 100 W32         N/A  VSB 1/16WCI  -7
PLYMOUTH       LGT SNOW  32  31  96 CALM      29.84S VSB 1
WHITEFIELD     SNOW      31  29  92 NE3       29.81S VSB 1/2

$$

_____REGIONAL QUEBEC LOCATIONS_____


CITY           SKY/WX    TMP DP  RH WIND       PRES   REMARKS
MONTREAL       LGT SNOW  21  16  79 N8        29.93S WCI  12
QUEBEC CITY    LGT SNOW  19  18  93 NE21      29.93F DRFTSNOWWCI   3
SHERBROOKE     LGT SNOW  28  28 100 CALM      29.82S VSB 1

_____REGIONAL ONTARIO LOCATIONS_____


CITY           SKY/WX    TMP DP  RH WIND       PRES   REMARKS
OTTAWA         MOCLDY    21  16  79 W8        29.95R WCI  12

______KEY______
VSB  - VISIBILITY IN MILES
WCI  - WIND CHILL INDEX
HX   - HEAT INDEX
$$
NNNN


ASUS41 KBTV 202130
RWRBTV
VERMONT REGIONAL WEATHER ROUNDUP
NATIONAL WEATHER SERVICE BURLINGTON VT
400 PM EST TUE NOV 20 2018

NOTE: "FAIR" INDICATES FEW OR NO CLOUDS BELOW 12,000 FEET WITH NO
SIGNIFICANT WEATHER AND/OR OBSTRUCTIONS TO VISIBILITY.

* THESE REPORTS ARE NOT UNDER NWS QUALITY CONTROL AND/OR DO NOT
  REPORT WEATHER SUCH AS PRECIPITATION AND FOG.

VTZ001>019-202200-
_____VERMONT_____


CITY           SKY/WX    TMP DP  RH WIND       PRES   REMARKS
BURLINGTON     LGT SNOW  25  21  85 N8        29.89R FOG     WCI  16
MONTPELIER     LGT SNOW  30  30 100 CALM      29.85S FOG
MORRISVILLE    LGT SNOW  29  28  96 N3        29.85S FOG
ST. JOHNSBURY*   N/A     31  31 100 MISG      29.82S
LYNDONVILLE*   LGT SNOW  30  29  97 CALM        N/A
MIDDLEBURY*    LGT SNOW  29  28  96 CALM      29.87S
RUTLAND*       LGT SNOW  32  31  96 N3        29.85S FOG
SPRINGFIELD    LGT SNOW  32  32 100 CALM      29.85S FOG
HIGHGATE*      LGT SNOW  21  19  93 CALM      29.91S
NEWPORT*       LGT SNOW  28  28 100 CALM      29.84R
BENNINGTON     CLOUDY    34  31  88 W3        29.86R
ISLAND POND*     N/A     28 N/A N/A CALM        N/A
GALLUP MILLS*    N/A     28 N/A N/A MISG        N/A
LAKE EDEN*       N/A     28 N/A N/A S1          N/A
MT. MANSFIELD*   N/A     23 N/A N/A W7          N/A  WCI  15

_____LAKE CHAMPLAIN_____


CITY           SKY/WX    TMP DP  RH WIND       PRES   REMARKS
BURTON ISLAND*   N/A     25  25 100 N6          N/A  WCI  18
COLCHESTER RF*   N/A     27  25  93 NE14        N/A  WCI  15
DIAMOND ISL*     N/A     32  30  93 N13         N/A  WCI  22

$$

NYZ007-026>031-035-052-083-087-202200-
_____NORTHERN NEW YORK_____


CITY           SKY/WX    TMP DP  RH WIND       PRES   REMARKS
PLATTSBURGH    LGT SNOW  22  19  89 N6        29.91R FOG     WCI  14
SARANAC LAKE   LGT SNOW  29  27  92 W7        29.80R FOG     WCI  22
MASSENA        LGT SNOW  24  21  88 CALM      29.97R FOG
OGDENSBURG*    CLOUDY    25  21  85 NW6       29.96R WCI  18
POTSDAM*       CLOUDY    25  21  86 NW6       29.93R WCI  18
WATERTOWN      CLOUDY    28  24  85 W7        29.97R WCI  21
FT DRUM        CLOUDY    25  25 100 NW8       29.93R WCI  16
ALBANY         MOCLDY    39  32  76 CALM      29.90R
GLENS FALLS    CLOUDY    33  33 100 SE3       29.88R FOG

$$
NHZ002-005-011-202200-
_____NEW HAMPSHIRE_____


CITY           SKY/WX    TMP DP  RH WIND       PRES   REMARKS
LEBANON        LGT SNOW  34  31  88 CALM      29.83S VSB 3/4
KEENE          LGT SNOW  32  32 100 CALM      29.85S FOG
MT WASHINGTON  SNOW      14  14 100 W32         N/A  VSB 1/16WCI  -7
PLYMOUTH       LGT SNOW  32  31  96 CALM      29.84S
WHITEFIELD     LGT SNOW  31  29  92 NE5       29.81S VSB 1   WCI  26

$$

_____REGIONAL QUEBEC LOCATIONS_____


CITY           SKY/WX    TMP DP  RH WIND       PRES   REMARKS
MONTREAL       LGT SNOW  21  16  79 N8        29.93S WCI  12
QUEBEC CITY    LGT SNOW  19  18  93 NE21      29.93F DRFTSNOWWCI   3
SHERBROOKE     LGT SNOW  28  28 100 CALM      29.82S VSB 1

_____REGIONAL ONTARIO LOCATIONS_____


CITY           SKY/WX    TMP DP  RH WIND       PRES   REMARKS
OTTAWA         MOCLDY    21  16  79 W8        29.95R WCI  12

______KEY______
VSB  - VISIBILITY IN MILES
WCI  - WIND CHILL INDEX
HX   - HEAT INDEX
$$
NNNN




Office: BOX ASUS41 KBOX 202110 RWRBOX REGIONAL WEATHER ROUNDUP NATIONAL WEATHER SERVICE BOSTON/NORTON MA 400 PM EST TUE NOV 20 2018 NOTE: "FAIR" INDICATES FEW OR NO CLOUDS BELOW 12,000 FEET WITH NO SIGNIFICANT WEATHER AND/OR OBSTRUCTIONS TO VISIBILITY. MAZALL-202200- EASTERN MASSACHUSETTS CITY SKY/WX TMP DP RH WIND PRES REMARKS BOSTON LGT RAIN 36 33 89 NW12 29.83R FOG WCI 28 BEVERLY CLOUDY 34 31 88 N10 29.81S FOG WCI 26 LAWRENCE LGT SNOW 35 31 85 N7 29.86R VSB 1 WCI 29 BEDFORD LGT SNOW 34 31 88 NW8 29.83R FOG WCI 27 BLUE HILL N/A 32 32 100 NW12G18 29.78R WCI 23 NORWOOD CLOUDY 37 34 89 NW7 29.82R FOG WCI 32 MARSHFIELD MIX PCPN 41 39 93 N12G18 29.78R VSB 1 PLYMOUTH LGT RAIN 41 39 93 N12 29.77R FOG TAUNTON CLOUDY 41 38 89 NW7 29.79R FOG NEW BEDFORD CLOUDY 41 41 100 N8 29.77R $$ MAZALL-202200- CAPE COD AND THE ISLANDS CITY SKY/WX TMP DP RH WIND PRES REMARKS FALMOUTH CLOUDY 43 43 100 N13 29.75R FOG HYANNIS LGT RAIN 47 45 93 NW12G18 29.71R FOG CHATHAM CLOUDY 49 47 93 W3 29.71S PROVINCETOWN CLOUDY 42 40 92 N21G28 29.74R NANTUCKET CLOUDY 48 47 96 W12 29.73R MARTHAS VNYRD CLOUDY 44 44 100 NW14 29.75R FOG $$ MAZALL-202200- CENTRAL AND WESTERN MASSACHUSETTS CITY SKY/WX TMP DP RH WIND PRES REMARKS WORCESTER LGT SNOW 32 31 96 NW8 29.81R FOG WCI 25 FITCHBURG LGT SNOW 33 31 92 N6 29.85R FOG WCI 28 ORANGE LGT SNOW 34 32 92 CALM 29.85S FOG SPRINGFIELD LGT RAIN 35 34 93 NE5 29.85R WCI 31 WESTFIELD CLOUDY 36 34 92 E3 29.86R NORTH ADAMS CLOUDY 34 34 100 W8 29.86R WCI 27 PITTSFIELD CLOUDY 34 30 85 W8 29.83R WCI 27 $$ RIZALL-202200- RHODE ISLAND CITY SKY/WX TMP DP RH WIND PRES REMARKS PROVIDENCE DRIZZLE 37 35 92 NW13G20 29.82R FOG WCI 29 NEWPORT CLOUDY 39 38 96 N10 29.79R BLOCK ISLAND CLOUDY N/A N/A N/A MISG 29.82R SMITHFIELD MIX PCPN 34 33 96 N13G18 29.81R FOG WCI 25 WESTERLY CLOUDY 40 38 93 NW8 29.83R $$ CTZALL-202200- CONNECTICUT CITY SKY/WX TMP DP RH WIND PRES REMARKS BRADLEY INTL CLOUDY 37 36 96 N5 29.87R HARTFORD CLOUDY 39 35 86 N7 29.88R BRIDGEPORT CLOUDY 43 35 73 NW16 29.88R DANBURY LGT RAIN 37 35 92 VRB5 29.90R FOG GROTON CLOUDY 40 37 89 NW13 29.84R NEW HAVEN CLOUDY 44 37 76 NW7 29.86R CHESTER N/A 37 36 93 NW8 29.84R WCI 31 MERIDEN CLOUDY 40 36 86 N5 29.87R WILLIMANTIC CLOUDY 37 36 96 NW7 29.85R WCI 32 OXFORD CLOUDY 37 34 89 NW10 29.86R WCI 30 $$ MEZ002-015-021-024-NHZ003-005-008-011-012-014-VTZ005-008-202200- NORTHERN NEW ENGLAND CITY SKY/WX TMP DP RH WIND PRES REMARKS PORTLAND ME LGT SNOW 32 30 92 N8 29.84F FOG WCI 25 BANGOR ME SNOW 28 26 92 N9 29.86F VSB 1/2 WCI 19 CONCORD NH LGT SNOW 32 31 96 NW5 29.86R VSB 3/4 WCI 27 MANCHESTER NH LGT SNOW 33 31 92 N8 29.84R VSB 3/4 WCI 26 NASHUA NH LGT SNOW 33 33 100 NW8 29.86R FOG WCI 26 PORTSMOUTH NH LGT SNOW 32 31 95 N10 29.82R VSB 3/4 WCI 24 JAFFREY NH LGT SNOW 32 32 100 VRB3 29.82S VSB 3/4 KEENE NH LGT SNOW 33 32 96 CALM 29.85S FOG BURLINGTON VT LGT SNOW 25 21 85 N8 29.89R FOG WCI 16 MT. WASHINGTON SNOW 14 14 100 W32 N/A VSB 1/16WCI -7 $$ NYZ052-076-202200- EASTERN NEW YORK CITY SKY/WX TMP DP RH WIND PRES REMARKS ALBANY MOCLDY 39 32 76 CALM 29.90R NEW YORK CITY FAIR 47 32 56 NW16 29.90R $$ ANZALL-202200- MARINE OBSERVATIONS STATION/POSITION TIME TEMP WIND PRES VSBY WAVE AIR SEA DIR/SP/G HT/PER (UTC) (F) (DEG/KT/KT) (MB) (MI) (FT/S) BOSTON BUOY 2050 41 51 20/ 19/ 23 1008.1R 6/ 6 BUZZARDS BAY 2000 42 330/ 12/ 14 1007.9R NANTUCKET SOUND 2050 46 48 300/ 14/ 17 1006.5R 1 MASS BAY-STELLWA 2004 40 49 30/ 21/ 23 1007.0F 1 3/8 6/ 6 ISLE OF SHOALS 2000 36 20/ 19/ 22 1008.9S S OF BLOCK IS 2043 56 N/A 4/ 4 $$ ......................KEY......................... SKY/WX - SKY CONDITION/PRESENT WEATHER TMP - TEMPERATURE IN FAHRENHEIT DWPT - DEWPOINT IN FAHRENHEIT RH - RELATIVE HUMIDITY IN PERCENT WIND - DIRECTION AND SPEED IN MPH PRES - MEAN SEA LEVEL PRESSURE IN INCHES OF HG WCI - WIND CHILL INDEX VSB - VISIBILITY IN MILES HX - HEAT INDEX TC - TEMPERATURE IN CELSIUS VRB - VARIABLE WIND DIRECTION N/A - NOT AVAILABLE
Office: GYX ASUS41 KGYX 202105 RWRGYX WEATHER ROUNDUP FOR MAINE AND NEW HAMPSHIRE NATIONAL WEATHER SERVICE GRAY ME 400 PM EST TUE NOV 20 2018 MEZ002-005-006-010-012-015-018-020-021-024-026-027-029-202200- MAINE CITY SKY/WX TMP DP RH WIND PRES REMARKS PORTLAND LGT SNOW 32 30 92 N8 29.84F FOG SANFORD MIX PCPN 31 30 96 N8 29.84R FOG BAR HARBOR SNOW 30 29 96 N13 29.83F VSB 1/2 WCI 20 WISCASSET LGT SNOW 31 30 96 VRB3 29.85F FOG ROCKLAND LGT SNOW 31 30 96 N9 29.82F VSB 3/4 FRYEBURG LGT SNOW 30 29 96 CALM 29.85S VSB 3/4 LEWISTONAUBURN LGT SNOW 30 29 96 N8 29.85S FOG AUGUSTA LGT SNOW 29 27 92 N9 29.85S VSB 1 WATERVILLE LGT SNOW 28 26 92 MISG 29.83F VSB 1 BANGOR SNOW 28 26 92 N9 29.86F VSB 1/2 GREENVILLE N/A 26 23 88 NE3 29.79S MILLINOCKET LGT SNOW 26 21 81 VRB6 29.90S VSB 1 HOULTON LGT SNOW 24 22 91 N8 29.89F VSB 1 PRESQUE ISLE LGT SNOW 23 20 88 N5 29.92F FOG FRENCHVILLE LGT SNOW 23 16 74 N6 29.90F CARIBOU LGT SNOW 24 19 81 N7 29.91S $$ NHZ002-005-008-009-011-012-014-202200- NEW HAMPSHIRE CITY SKY/WX TMP DP RH WIND PRES REMARKS PORTSMOUTH LGT SNOW 32 31 95 N10 29.82R VSB 3/4 ROCHESTER LGT SNOW 32 31 96 NW8 29.83R FOG NASHUA LGT SNOW 33 33 100 NW8 29.86R FOG MANCHESTER LGT SNOW 33 31 92 N8 29.84R VSB 3/4 CONCORD LGT SNOW 32 31 96 NW5 29.86R VSB 3/4 LACONIA LGT SNOW 31 30 96 CALM 29.85R VSB 3/4 PLYMOUTH LGT SNOW 32 31 96 CALM 29.84S VSB 1 BERLIN SNOW 30 28 92 CALM 29.81S VSB 1/2 WHITEFIELD SNOW 31 29 92 NE3 29.81S VSB 1/2 JAFFREY LGT SNOW 32 32 100 VRB3 29.82S VSB 3/4 KEENE LGT SNOW 33 32 96 CALM 29.85S FOG LEBANON LGT SNOW 34 31 88 CALM 29.83S VSB 3/4 MT WASHINGTON SNOW 14 14 100 W32 N/A VSB 1/16WCI -7 $$ VTZ005-007-008-202200- VERMONT CITY SKY/WX TMP DP RH WIND PRES REMARKS ST JOHNSBURY N/A 31 31 100 MISG 29.82S MONTPELIER LGT SNOW 30 30 100 CALM 29.85S FOG BURLINGTON LGT SNOW 25 21 85 N8 29.89R FOG $$ MAZ007-012-024-CTZ003-RIZ002-NYZ038-NYZ072-202200- SOUTHERN NEW ENGLAND AND NY CITY SKY/WX TMP DP RH WIND PRES REMARKS BOSTON LGT RAIN 36 33 89 NW12 29.83R FOG WORCESTER LGT SNOW 32 31 96 NW8 29.81R FOG NANTUCKET CLOUDY 48 47 96 W12 29.73R PROVIDENCE DRIZZLE 37 35 92 NW13G20 29.82R FOG HARTFORD CLOUDY 37 36 96 N5 29.87R ALBANY MOCLDY 39 32 76 CALM 29.90R NEW YORK CITY FAIR 47 32 56 NW16 29.90R $$ ANZ081-ANZ082-ANZ150-NHZ014-MEZ023>029-202200- COASTAL MARINE OBSERVATIONS STATION/POSITION TIME TEMP WIND PRES WAVE AIR SEA DIR/SP/G HT/PER (UTC) (F) (DEG/KT/KT) (MB) (FT/S) MOUNT DESERT ROC 2100 35 360/ 26/ 28 1008.5F MATINICUS ROCK 2000 32 30/ 21/ 23 1008.9F ISLE OF SHOALS 2000 36 20/ 19/ 22 1008.9S CASHES LEDGE BUO 2050 37 49 1007.3F 6/ 6 $$ .............KEY.............. WCI - WIND CHILL TC - TEMPERATURE IN CELSIUS VSB - VISIBILITY IN MILES HX - HEAT INDEX FAIR- INDICATES FEW OR NO CLOUDS BELOW 12,000 FT, WITH NO SIGNIFICANT WEATHER AND/OR OBSTRUCTIONS TO VISIBILITY. ASUS41 KGYX 202110 RWRGYX WEATHER ROUNDUP FOR MAINE AND NEW HAMPSHIRE NATIONAL WEATHER SERVICE GRAY ME 400 PM EST TUE NOV 20 2018 MEZ002-005-006-010-012-015-018-020-021-024-026-027-029-202200- MAINE CITY SKY/WX TMP DP RH WIND PRES REMARKS PORTLAND LGT SNOW 32 30 92 N8 29.84F FOG SANFORD LGT SNOW 30 30 100 N9 29.84R FOG BAR HARBOR SNOW 30 29 96 N13 29.83F VSB 1/2 WCI 20 WISCASSET LGT SNOW 31 30 96 VRB3 29.85F FOG ROCKLAND LGT SNOW 31 30 96 N9 29.82F VSB 3/4 FRYEBURG LGT SNOW 30 29 96 CALM 29.85S VSB 3/4 LEWISTONAUBURN LGT SNOW 30 29 96 N8 29.85S FOG AUGUSTA LGT SNOW 28 27 96 N9 29.85S VSB 3/4 WATERVILLE LGT SNOW 28 27 93 MISG 29.83S VSB 1 BANGOR SNOW 28 26 92 N9 29.86F VSB 1/2 GREENVILLE N/A 26 23 88 NE3 29.79S MILLINOCKET LGT SNOW 26 21 81 VRB6 29.90S VSB 1 HOULTON LGT SNOW 24 22 91 N8 29.89F VSB 1 PRESQUE ISLE LGT SNOW 23 20 88 N5 29.92F FOG FRENCHVILLE LGT SNOW 23 16 74 N6 29.90F CARIBOU LGT SNOW 24 19 81 N7 29.90F $$ NHZ002-005-008-009-011-012-014-202200- NEW HAMPSHIRE CITY SKY/WX TMP DP RH WIND PRES REMARKS PORTSMOUTH LGT SNOW 32 31 95 N10 29.82R VSB 3/4 ROCHESTER LGT SNOW 32 31 96 NW8 29.83R FOG NASHUA LGT SNOW 33 33 100 NW8 29.86R FOG MANCHESTER LGT SNOW 33 31 92 N8 29.84R VSB 3/4 CONCORD LGT SNOW 32 31 96 NW5 29.86R VSB 3/4 LACONIA LGT SNOW 31 30 96 CALM 29.85R VSB 3/4 PLYMOUTH LGT SNOW 32 31 96 CALM 29.84S VSB 1 BERLIN SNOW 30 28 92 CALM 29.81S VSB 1/2 WHITEFIELD SNOW 31 29 92 NE3 29.81S VSB 1/2 JAFFREY LGT SNOW 32 32 100 VRB3 29.82S VSB 3/4 KEENE LGT SNOW 33 32 96 CALM 29.85S FOG LEBANON LGT SNOW 34 31 88 CALM 29.83S VSB 3/4 MT WASHINGTON SNOW 14 14 100 W32 N/A VSB 1/16WCI -7 $$ VTZ005-007-008-202200- VERMONT CITY SKY/WX TMP DP RH WIND PRES REMARKS ST JOHNSBURY N/A 31 31 100 MISG 29.82S MONTPELIER LGT SNOW 30 30 100 CALM 29.85S FOG BURLINGTON LGT SNOW 25 21 85 N8 29.89R FOG $$ MAZ007-012-024-CTZ003-RIZ002-NYZ038-NYZ072-202200- SOUTHERN NEW ENGLAND AND NY CITY SKY/WX TMP DP RH WIND PRES REMARKS BOSTON LGT RAIN 36 33 89 NW12 29.83R FOG WORCESTER LGT SNOW 32 31 96 NW8 29.81R FOG NANTUCKET CLOUDY 48 47 96 W12 29.73R PROVIDENCE DRIZZLE 37 35 92 NW13G20 29.82R FOG HARTFORD CLOUDY 37 36 96 N5 29.87R ALBANY MOCLDY 39 32 76 CALM 29.90R NEW YORK CITY FAIR 47 32 56 NW16 29.90R $$ ANZ081-ANZ082-ANZ150-NHZ014-MEZ023>029-202200- COASTAL MARINE OBSERVATIONS STATION/POSITION TIME TEMP WIND PRES WAVE AIR SEA DIR/SP/G HT/PER (UTC) (F) (DEG/KT/KT) (MB) (FT/S) MOUNT DESERT ROC 2100 35 360/ 26/ 28 1008.5F MATINICUS ROCK 2000 32 30/ 21/ 23 1008.9F ISLE OF SHOALS 2000 36 20/ 19/ 22 1008.9S CASHES LEDGE BUO 2050 37 49 1007.3F 6/ 6 $$ .............KEY.............. WCI - WIND CHILL TC - TEMPERATURE IN CELSIUS VSB - VISIBILITY IN MILES HX - HEAT INDEX FAIR- INDICATES FEW OR NO CLOUDS BELOW 12,000 FT, WITH NO SIGNIFICANT WEATHER AND/OR OBSTRUCTIONS TO VISIBILITY.